DateTimeUTC,F1_A11,F1_S11,BsB_S11,BsG_S11,BsR_S11,BbsB_S11,BbsG_S11,BbsR_S11,BaB_A11,BaG_A11,BaR_A11,Tu_S11,T_S11,Uu_S11,U_S11,P_S11,T1_A11
2021-12-07T11:00:00Z,00000200,21000000,,,,,,,0000.11,0000.40,0000.37,20.1,26.9,,00.0,0636.3,31.2
2021-12-07T11:01:00Z,00000200,21000000,,,,,,,0000.42,0000.36,0000.46,20.1,26.9,,00.0,0636.3,31.1
2021-12-07T11:02:00Z,00000200,21000000,,,,,,,0000.15,-000.12,-000.39,20.1,26.9,,00.0,0636.3,31.1
2021-12-07T11:03:00Z,00000200,61000000,,,,,,,0000.55,0000.26,0000.53,20.1,26.9,,00.0,0636.3,31.1
2021-12-07T11:04:00Z,00000200,41000000,0000.18,0000.02,0000.02,0000.25,0000.16,-000.02,0000.04,0000.25,-000.13,20.1,26.7,,00.0,0637.1,31.1
2021-12-07T11:05:00Z,00000200,01000000,0000.14,0000.03,0000.05,-000.50,0000.44,-000.17,0000.16,-000.09,-000.09,20.1,26.7,,00.0,0637.2,31.1
2021-12-07T11:06:00Z,00000200,01000000,-000.53,0000.35,-000.55,0000.23,-000.16,-000.27,0000.06,0000.13,0000.40,20.1,26.6,,00.0,0637.2,31.1
2021-12-07T11:07:00Z,00000200,01000000,0000.27,0000.39,0000.04,0000.09,0000.19,-000.42,0000.09,-000.07,-000.03,20.0,26.6,,00.0,0637.2,31.1
2021-12-07T11:08:00Z,00000200,01000000,0000.26,0000.38,-000.06,-000.65,-000.16,-000.49,0000.03,0000.38,-000.18,20.1,26.6,,00.0,0637.2,31.1
2021-12-07T11:09:00Z,00000200,01000000,-000.91,-000.08,-000.28,-000.20,-000.16,-000.40,0000.47,0000.30,0000.52,20.2,26.6,,00.0,0637.2,31.1
2021-12-07T11:10:00Z,00000200,01000000,0000.24,-000.39,0000.06,0000.36,0000.22,-000.32,0000.03,0000.43,0000.03,20.2,26.6,,00.0,0637.2,31.1
2021-12-07T11:11:00Z,00000200,01000000,-000.83,-000.06,-000.16,-000.56,0000.06,-000.21,0000.22,0000.37,0000.36,20.2,26.6,,00.0,0637.2,31.1
2021-12-07T11:12:00Z,00000200,01000000,0000.06,0000.10,-000.30,-000.16,-000.05,0000.03,0000.48,-000.03,0000.16,20.3,26.6,,00.0,0637.2,31.1
2021-12-07T11:13:00Z,00000200,01000000,-000.06,0000.08,-000.09,0000.21,0000.24,-000.22,-000.08,0000.02,-000.15,20.3,26.7,,00.0,0637.2,31.1
2021-12-07T11:14:00Z,00000200,01000000,0000.14,-000.18,-000.03,0000.10,0000.12,-000.27,0000.01,-000.09,-000.12,20.4,26.7,,00.0,0637.2,31.2
2021-12-07T11:15:00Z,00000200,01000000,0000.09,-000.09,0000.11,-000.20,0000.15,-000.04,-000.01,0000.27,0000.51,20.4,26.7,,00.0,0637.2,31.2
2021-12-07T11:16:00Z,00000200,01000000,-000.41,0000.06,-000.22,-000.12,0000.11,-000.23,-000.08,-000.36,-000.39,20.5,26.7,,00.0,0637.2,31.2
2021-12-07T11:17:00Z,00000200,01000000,-000.61,0000.09,-000.11,-001.07,0000.15,-000.13,0000.04,-000.01,-000.04,20.5,26.8,,00.0,0637.2,31.2
2021-12-07T11:18:00Z,00000200,01000000,0000.29,-000.02,0000.02,-000.67,-000.16,0000.08,0000.15,0000.23,-000.05,20.5,26.8,,00.0,0637.3,31.2
2021-12-07T11:19:00Z,00000200,01000000,-000.69,0000.36,-000.30,-000.27,0000.42,-000.25,0000.09,-000.07,0000.50,20.4,26.8,,00.0,0637.3,31.1
2021-12-07T11:20:00Z,00000200,01000000,0000.67,0000.15,0000.46,-000.02,0000.05,0000.05,-000.31,0000.34,-000.25,20.4,26.7,,00.0,0637.2,31.1
2021-12-07T11:21:00Z,00000200,01000000,0000.08,-000.07,0000.17,-000.20,0000.02,-000.39,0000.35,0000.10,-000.15,20.3,26.7,,00.0,0637.2,31.1
2021-12-07T11:22:00Z,00000200,01000000,0000.05,0000.10,0000.05,-000.73,0000.33,-000.16,0000.27,-000.09,0000.45,20.4,26.7,,00.0,0637.2,31.1
2021-12-07T11:23:00Z,00000200,01000000,0000.04,0000.19,-000.17,-000.49,0000.43,-000.26,0000.08,0000.16,-000.02,20.4,26.7,,00.0,0637.2,31.1
2021-12-07T11:24:00Z,00000200,01000000,-000.51,0000.25,0000.04,-000.09,0000.48,-000.15,0000.28,0000.10,0000.16,20.4,26.7,,00.0,0637.2,31.2
2021-12-07T11:25:00Z,00000200,01000000,-000.03,0000.09,-000.02,-000.29,0000.15,-000.29,0000.05,0000.25,0000.07,20.5,26.7,,00.0,0637.2,31.2
2021-12-07T11:26:00Z,00000200,01000000,-000.18,-000.19,-000.06,-000.25,0000.33,0000.04,0000.03,0000.15,0000.10,20.5,26.8,,00.0,0637.2,31.1
2021-12-07T11:27:00Z,00000200,01000000,0000.16,-000.32,-000.29,0000.08,0000.25,-000.28,-000.22,-000.24,-000.16,20.5,26.8,,00.0,0637.2,31.2
2021-12-07T11:28:00Z,00000200,01000000,0000.23,-000.13,-000.20,-000.28,0000.17,-000.28,0000.21,0000.20,0000.38,20.6,26.8,,00.0,0637.3,31.2
2021-12-07T11:29:00Z,00000200,01000000,-000.68,0000.01,-000.20,-000.14,0000.25,-000.19,0000.23,0000.12,-000.20,20.6,26.9,,00.0,0637.2,31.2
2021-12-07T11:30:00Z,00000200,01000000,-000.04,-000.06,-000.27,-000.32,0000.08,-000.01,0000.28,0000.02,0000.13,20.7,26.9,,00.0,0637.3,31.2
2021-12-07T11:31:00Z,00000200,01000000,-000.91,0000.09,-000.48,0000.33,-000.10,-000.13,-000.37,0000.18,-000.24,20.7,26.9,,00.0,0637.3,31.2
2021-12-07T11:32:00Z,00000200,01000000,0000.20,0000.40,0000.10,-000.37,0000.14,-000.07,0000.47,0000.49,0000.40,20.7,26.9,,00.0,0637.3,31.2
2021-12-07T11:33:00Z,00000200,01000000,-000.83,-000.06,-000.11,0000.00,-000.21,0000.01,-000.02,-000.30,-000.12,20.7,26.9,,00.0,0637.3,31.2
2021-12-07T11:34:00Z,00000200,01000000,0000.10,0000.38,0000.02,-000.50,-000.14,-000.11,-000.13,-000.42,0000.18,20.6,26.9,,00.0,0637.3,31.2
2021-12-07T11:35:00Z,00000200,01000000,-001.12,0000.38,-000.13,-000.60,0000.22,-000.31,0000.01,0000.15,-000.35,20.6,26.9,,00.0,0637.3,31.1
2021-12-07T11:36:00Z,00000200,01000000,0000.20,0000.01,-000.14,-000.37,-000.06,-000.38,-000.07,0000.23,0000.20,20.5,26.9,,00.0,0637.3,31.1
2021-12-07T11:37:00Z,00000200,01000000,0000.28,-000.04,0000.03,-000.21,0000.10,-000.33,-000.20,0000.26,-000.14,20.5,26.8,,00.0,0637.3,31.1
2021-12-07T11:38:00Z,00000200,01010000,-000.32,0000.69,0000.05,0000.03,0000.37,-000.01,0000.22,-000.31,0000.43,20.5,26.9,,00.0,0637.4,31.1
2021-12-07T11:39:00Z,00000200,01000000,0000.05,0000.00,0000.03,0000.22,0000.00,-000.13,0000.22,0000.25,-000.13,20.6,26.9,,00.0,0637.4,31.1
2021-12-07T11:40:00Z,00000200,01000000,-000.34,0000.04,-000.05,-000.07,0000.12,-000.18,-000.08,-000.14,0000.23,20.6,26.9,,00.0,0637.4,31.1
2021-12-07T11:41:00Z,00000200,01000000,0000.17,-000.19,0000.22,-000.26,-000.19,-000.02,0000.06,0000.01,-000.46,20.7,26.9,,00.0,0637.4,31.2
2021-12-07T11:42:00Z,00000200,01000000,0000.66,0000.19,-000.08,-000.35,0000.14,-000.38,-000.09,-000.06,-000.01,20.7,26.9,,00.0,0637.4,31.2
2021-12-07T11:43:00Z,00000200,01000000,-000.10,0000.24,-000.22,-000.25,0000.09,-000.49,0000.11,0000.22,0000.07,20.8,26.9,,00.0,0637.5,31.2
2021-12-07T11:44:00Z,00000200,01000000,-000.07,0000.33,-000.07,-000.34,-000.15,-000.45,0000.03,0000.03,0000.33,20.8,27.0,,00.0,0637.5,31.2
2021-12-07T11:45:00Z,00000200,01000000,0000.54,0000.15,-000.10,-000.55,-000.09,0000.02,0000.28,-000.26,-000.08,20.9,27.0,,00.0,0637.5,31.2
2021-12-07T11:46:00Z,00000200,01000000,0000.12,0000.16,0000.03,-000.45,-000.04,-000.19,-000.47,0000.30,0000.06,20.9,27.0,,00.0,0637.5,31.2
2021-12-07T11:47:00Z,00000200,01000000,0000.23,-000.18,-000.02,-000.73,0000.03,0000.07,0000.28,-000.06,0000.27,20.8,27.1,,00.0,0637.5,31.2
2021-12-07T11:48:00Z,00000200,01000000,-000.22,-000.06,-000.52,0000.45,0000.04,-000.39,0000.18,0000.09,-000.32,20.8,27.0,,00.0,0637.5,31.2
2021-12-07T11:49:00Z,00000200,01000000,-000.65,-000.25,-000.09,-000.01,0000.22,-000.42,0000.26,0000.14,-000.06,20.7,27.0,,00.0,0637.5,31.1
2021-12-07T11:50:00Z,00000200,01000000,0000.08,0000.10,-000.26,0000.65,0000.09,-000.09,-000.83,-000.11,0000.06,20.6,27.0,,00.0,0637.5,31.1
2021-12-07T11:51:00Z,00000200,01000000,0000.34,0000.36,-000.08,0000.31,0000.32,-000.25,0000.01,-000.46,-000.26,20.6,26.9,,00.0,0637.5,31.1
2021-12-07T11:52:00Z,00000200,01000000,-000.01,0000.24,0000.00,-000.32,0000.34,0000.04,0000.16,-000.10,0000.11,20.6,26.9,,00.0,0637.5,31.1
2021-12-07T11:53:00Z,00000200,01000000,-000.23,-000.17,-000.07,-000.24,0000.09,-000.27,0000.01,0000.15,-000.06,20.6,26.9,,00.0,0637.5,31.1
2021-12-07T11:54:00Z,00000200,01000000,-000.03,0000.01,-000.13,-000.31,0000.22,-000.29,0000.29,0000.18,0000.05,20.7,26.9,,00.0,0637.5,31.2
2021-12-07T11:55:00Z,00000200,01000000,-000.26,0000.51,-000.13,0000.12,0000.05,0000.09,-000.46,-000.30,-000.05,20.7,26.9,,00.0,0637.5,31.2
2021-12-07T11:56:00Z,00000200,01000000,0000.42,-000.13,0000.28,-000.58,-000.14,-000.18,-000.02,-000.07,-000.01,20.7,27.0,,00.0,0637.5,31.2
2021-12-07T11:57:00Z,00000200,41000000,,,,,,,0000.25,0000.51,0000.27,20.8,27.0,,00.0,0637.6,31.2
2021-12-07T11:58:00Z,00000200,61000000,,,,,,,-000.20,-000.32,-000.35,20.4,27.1,,00.0,0636.7,31.2
2021-12-07T11:59:00Z,00000200,21000000,,,,,,,-000.49,-000.37,-000.13,20.4,27.2,,00.0,0636.7,31.2
